Flag for Australia Weather past 2 weeks in Wagga Wagga, New South Wales, Australia

Now
46 °F

Passing clouds.


Feels Like: 43 °F
Forecast: 39 / 61 °F
Wind: 7 mph from South

Location: Wagga Airport

Current Time: Sep 3, 2015 at 9:36:15 PM

Latest Report: Sep 3, 2015 at 9:00 PM


Visibility: N/A

Pressure: 30.04 "Hg

Humidity: 82%

Dew point: 41 °F

Location of Wagga WaggaLocation

Historic Weather in Wagga Wagga — Graph

°F

Wagga Wagga temperature yesterday

Maximum temperature yesterday: 63 °F (at 3:00 PM)
Minimum temperature yesterday: 39 °F (at 12:00 AM)
Average temperature yesterday: 50 °F

Past Weeks' High & Low Weather Summary

 TemperatureHumidityPressure
High70 °F (Aug 22, 2:00 PM)100% (Aug 19, 11:00 PM)30.36 "Hg (Aug 19, 11:00 PM)
Low36 °F (Aug 19, 11:00 PM)46% (Aug 22, 2:00 PM)29.65 "Hg (Sep 3, 1:00 AM)
Average50 °F82%30.08 "Hg
* Reported Aug 19 8:00 PM — Sep 3 8:00 PM, Wagga Wagga, Weather by CustomWeather, © 2015

Note: Actual official high and low records may vary slightly from our data, if they occured in-between our weather recording intervals... More about our weather records

Advertising

Wagga Wagga weather history for previous 24 hours

 ConditionsComfort  
Time TempWeatherWind HumidityBarometerVisibility
8:00 PM
Thu, Sep 3
48 °FPassing clouds.6 mph87%30.01 "HgN/A
7:00 PM50 °FPassing clouds.7 mph88%29.98 "HgN/A
6:00 PM55 °FClear.7 mph77%29.95 "Hg10 mi
5:00 PM57 °FPassing clouds.8 mph72%29.92 "HgN/A
4:00 PM57 °FBroken clouds.12 mph72%29.89 "HgN/A
3:00 PM55 °FBroken clouds.10 mph77%29.86 "HgN/A
2:00 PM52 °FDrizzle. Broken clouds.8 mph82%29.83 "HgN/A
1:00 PM52 °FBroken clouds.13 mph82%29.83 "HgN/A
12:00 PM52 °FDrizzle. Low clouds.13 mph82%29.80 "HgN/A
11:00 AM52 °FLight rain. Broken clouds.14 mph88%29.80 "Hg4 mi
10:00 AM52 °FDrizzle. Partly sunny.10 mph88%29.77 "HgN/A
9:00 AM50 °FDrizzle. Partly sunny.9 mph100%29.77 "HgN/A
8:00 AM50 °FDrizzle. Partly sunny.8 mph100%29.74 "Hg6 mi
7:00 AM50 °FDrizzle. Fog.10 mph94%29.71 "Hg2 mi
6:00 AM50 °FLow clouds.8 mph94%29.68 "Hg4 mi
5:00 AM50 °FMostly cloudy.9 mph94%29.65 "HgN/A
4:00 AM50 °FOvercast.8 mph94%29.65 "HgN/A
3:00 AM50 °FMostly cloudy.6 mph100%29.65 "HgN/A
2:00 AM50 °FMostly cloudy.5 mph100%29.65 "HgN/A
1:00 AM50 °FOvercast.6 mph100%29.65 "HgN/A
12:00 AM50 °FPartly cloudy.7 mph94%29.68 "Hg4 mi
11:00 PM
Wed, Sep 2
52 °FLight rain. Partly cloudy.8 mph88%29.68 "Hg4 mi
10:00 PM52 °FLight rain. Partly cloudy.12 mph88%29.71 "HgN/A
9:00 PM52 °FLight rain. Passing clouds.6 mph94%29.74 "HgN/A
Weather by CustomWeather, © 2015

See weather overviewHow to use our weather pages